Regional Weather Roundup
Issued by NWS

Home | Current Version | Previous Version | Text Only | Print | Product List | Glossary Off
Versions: 1 2 3 4 5 6 7 8 9 10 11 12 13 14 15 16 17 18 19 20 21 22 23 24 25 26 27 28 29 30 31 32 33 34 35 36 37 38 39 40 41 42 43 44 45 46 47 48 49 50

000
ASUS44 KMEG 232010
RWRTN
TENNESSEE HOURLY STATE WEATHER ROUNDUP
NATIONAL WEATHER SERVICE MEMPHIS TN
300 PM CDT SAT JUL 23 2016

TNZ002-004-019-021-049-052-054-088>092-232100-
WEST TENNESSEE

CITY           SKY/WX    TMP DP  RH WIND       PRES   REMARKS
MEMPHIS INTL   CLOUDY    84  71  65 S8        29.96F
NWS MEMPHIS      N/A     84 N/A N/A MISG        N/A
JACKSON        PTSUNNY   91  75  59 SW3       29.95F HX 101
DYERSBURG      PTSUNNY  N/A N/A N/A MISG        N/A
UNION CITY     PTSUNNY   90  75  62 CALM      29.95F HX 100
PARIS          SUNNY     90  73  58 CALM      29.98F HX  98
LEXINGTON      MOSUNNY   91  73  55 S3        29.95F HX 100
$$

TNZ008-025-027-028-033-062-065-066-232100-
NORTH MIDDLE TENNESSEE

CITY           SKY/WX    TMP DP  RH WIND       PRES   REMARKS
NASHVILLE      CLOUDY    87  73  62 E12       29.98S HX  94
CLARKSVILLE    PTSUNNY   91  73  55 CALM      29.96F HX  99
SMYRNA         LGT RAIN  80  74  82 NW6       29.98F
COOKEVILLE     SUNNY     97  75  49 VRB3      29.98F HX 109
CROSSVILLE     MOSUNNY   89  69  51 SW7       30.04F HX  93
$$

TNZ061-075-076-078-094-096-097-232100-
SOUTH MIDDLE TENNESSEE

CITY           SKY/WX    TMP DP  RH WIND       PRES   REMARKS
FAYETTEVILLE   MOSUNNY   93  72  49 NW6       29.97F HX 100
TULLAHOMA      MOSUNNY   93  66  40 CALM      30.00S HX  96
WINCHESTER     MOSUNNY   95  72  46 VRB6      29.98S HX 103
MCMINNVILLE    SUNNY     90  73  58 CALM      30.00F HX  98
COLUMBIA       PTSUNNY   95  73  49 SW9       29.96S HX 105
SHELBYVILLE    MOSUNNY   97  75  49 SW6       29.98F HX 109
$$

TNZ017-018-042-046-047-232100-
NORTHEAST TENNESSEE

CITY           SKY/WX    TMP DP  RH WIND       PRES   REMARKS
TRI CITIES     PTSUNNY   96  61  31 VRB6      30.00F HX  96
ELIZABETHTON   SUNNY     95  64  36 VRB5      30.00F HX  97
$$

TNZ012-013-036-069-073-074-232100-
CENTRAL EAST TENNESSEE

CITY           SKY/WX    TMP DP  RH WIND       PRES   REMARKS
KNOXVILLE      PTSUNNY   94  68  42 NW8       29.95F HX  98
OAK RIDGE      CLOUDY    91  71  51 VRB6      29.98F HX  97
GATLINBURG       N/A     93  64  38 VRB3      29.96F HX  95
MORRISTOWN     SUNNY     93  70  46 NE8       29.98F HX  99
$$

TNZ083-085-099-232100-
SOUTHEAST TENNESSEE

CITY           SKY/WX    TMP DP  RH WIND       PRES   REMARKS
CHATTANOOGA    CLOUDY    92  69  47 SE6       29.98F HX  97
$$

SKY/WX REPORTED AS FAIR MEANS FEW OR NO CLOUDS BELOW
12 THOUSAND FEET.




USA.gov is the U.S. government's official web portal to all federal, state and local government web resources and services.